User: anonymous   Login
Location: Unspecified
(0.0000°N, 0.0000°E)
Time: 19:58:44
(UTC+00:00)
Language:

EXOCUBE - Orbit

View from above orbital plane
View from above orbital plane
View from above satellite
View from above satellite

Ground track
Ground track

The orbit data is extracted from the following two-line orbital elements,

1 40380U 15003E   18350.75679325  .00001460  00000-0  69587-4 0  9995
2 40380  99.0931 281.3396 0141935   7.8099 352.5290 15.12980315213553
Epoch (UTC): 16 December 2018 18:09:46
Eccentricity: 0.0141935
inclination: 99.0931°
perigee height: 429 km
apogee height: 625 km
right ascension of ascending node: 281.3396°
argument of perigee: 7.8099°
revolutions per day: 15.12980315
mean anomaly at epoch: 352.5290°
orbit number at epoch: 21355

The dashed part of the orbit path shows where the satellite is in the earth's shadow,  

DLR